Theta_e
298 300 302 301 301 301 299 298 295 297 298 302 305 306 311 312 311 312 310 311 312 312 311 310 311 314 317 317 314 315 318 316 321 322 322 323 325 325 326 327 326 326 325 329
296 301 300 301 302 302 302 301 299 300 299 305 309 308 311 312 312 311 312 313 314 314 312 311 312 313 316 316 313 314 318 317 320 320 324 323 322 324 324 324 326 321 319 320
291 298 299 294 301 302 302 302 301 296 299 305 306 307 309 311 312 312 313 314 314 315 313 311 313 314 315 316 312 313 318 319 319 319 326 322 321 320 319 321 318 318 318 316
292 294 287 298 305 307 303 304 303 302 304 306 306 309 313 316 314 313 314 314 315 316 314 313 315 314 316 315 312 312 315 318 318 318 322 321 320 318 318 319 317 315 315 312
290 290 297 300 304 303 300 300 305 303 306 308 308 308 309 317 317 316 316 316 317 318 316 315 315 316 317 314 311 311 312 314 317 317 318 320 319 317 319 318 317 315 313 310
292 287 287 298 305 308 306 297 306 306 304 305 306 301 303 311 318 317 318 318 317 319 316 315 316 317 316 314 311 310 312 313 316 316 317 317 320 319 320 319 319 319 315 310
293 289 296 305 308 307 294 296 307 307 306 306 303 305 309 314 315 319 320 319 320 320 316 315 317 317 315 315 312 313 313 314 313 315 317 317 321 322 320 321 319 317 317 313
292 291 289 306 305 297 301 305 309 308 309 308 310 312 313 315 316 317 319 320 321 319 316 317 318 317 315 315 315 315 314 314 312 314 320 323 322 321 321 320 318 317 315 314
294 297 304 308 308 312 312 308 308 311 312 312 312 312 313 313 314 318 319 320 321 319 317 317 318 317 316 316 318 316 313 312 313 315 316 322 321 320 318 317 318 315 316 313
297 302 301 307 307 308 313 310 312 313 314 312 311 311 311 316 317 319 320 321 321 320 318 316 318 318 318 320 320 317 313 313 315 313 316 321 322 322 319 316 315 313 314 312
297 299 302 303 305 307 315 312 316 314 314 314 312 312 312 315 317 318 321 321 322 322 319 318 319 318 319 321 320 316 315 316 314 313 318 319 321 320 319 317 315 314 312 313
293 298 298 298 301 308 311 312 315 316 315 315 314 313 313 315 318 317 318 321 322 323 322 321 320 320 320 321 321 317 316 317 315 313 317 318 317 316 299 303 303 303 304 310
296 302 301 301 305 307 304 312 316 317 318 316 316 317 317 319 318 318 320 322 324 324 324 323 321 321 322 322 321 319 317 317 316 313 317 316 317 317 313 302 296 296 298 299
302 301 299 302 301 304 304 314 314 317 319 317 318 319 318 319 318 319 319 323 324 326 326 325 324 323 324 322 322 319 318 307 317 316 314 316 316 316 316 311 305 304 297 297
300 303 303 304 303 303 304 308 312 312 315 317 319 319 320 318 318 319 320 322 324 323 324 326 326 325 326 324 322 320 321 317 317 317 317 313 316 315 314 314 311 309 301 296
299 301 303 301 302 303 304 305 308 310 310 317 319 320 319 319 319 318 318 319 318 319 323 324 325 327 328 325 322 322 321 311 313 317 315 316 314 314 314 311 312 311 307 304
295 298 299 301 302 303 304 307 308 310 311 313 319 321 320 317 318 317 317 319 321 322 322 325 326 327 328 326 323 323 322 317 308 317 316 316 316 314 314 313 310 311 310 304
300 301 303 302 302 303 306 308 308 309 310 310 319 319 318 318 316 317 317 321 321 326 327 325 325 330 327 327 326 324 323 321 318 318 318 317 316 317 315 313 312 311 312 307
300 301 304 305 305 305 306 306 308 309 310 312 313 316 317 318 316 319 319 322 320 321 325 326 315 322 325 313 321 325 322 322 319 319 318 309 312 315 315 315 315 314 313 309
304 302 303 304 307 306 306 307 308 308 308 310 313 316 315 315 314 320 320 319 323 322 326 323 326 325 326 317 310 320 320 322 320 319 318 316 317 317 315 307 313 313 311 308
303 306 307 303 305 306 307 307 307 306 308 310 310 312 313 316 316 320 321 322 325 324 322 317 325 324 324 318 319 318 318 320 320 320 319 318 317 317 318 317 312 309 306 305
301 303 305 306 307 307 306 306 307 309 309 309 310 311 315 317 318 317 321 320 321 299 320 324 319 301 312 301 321 320 318 319 318 320 319 319 318 316 317 314 312 309 307 308
301 303 304 305 306 307 310 310 310 311 311 310 312 318 317 317 317 316 313 314 312 304 315 309 291 288 290 316 319 318 319 319 318 318 318 318 318 318 317 315 313 310 308 308
301 302 304 307 310 308 307 309 315 317 318 318 318 319 317 313 314 317 317 306 302 305 309 303 296 289 295 317 317 318 318 318 316 316 313 303 314 317 315 312 311 310 308 306
303 304 304 304 305 306 308 312 313 313 315 314 316 317 317 316 314 315 318 316 301 313 319 301 293 294 316 319 318 318 318 317 316 316 314 312 310 309 309 310 310 307 301 300
303 303 304 305 304 306 309 309 307 310 313 310 313 316 316 317 317 317 317 312 318 307 319 319 318 317 318 318 317 316 314 313 316 314 312 311 308 306 304 302 302 301 300 300
304 299 304 305 306 306 305 305 307 306 308 311 312 313 313 313 312 313 306 317 317 318 318 316 316 312 318 317 315 314 314 312 307 312 310 308 304 303 302 302 300 299 299 298
Wind_Speed
21 24 10 23 22 20 18 12 13 8 7 11 12 11 19 16 16 15 13 11 11 12 10 11 9 9 9 7 8 8 8 8 7 7 5 6 6 6 5 5 5 5 6 7
20 19 22 17 26 21 19 13 9 11 10 10 8 9 13 20 19 18 16 15 14 14 14 13 12 9 10 8 8 9 10 8 7 6 6 6 7 6 6 5 6 7 7 9
22 18 10 18 21 24 21 10 14 15 7 5 6 11 14 20 20 21 18 18 17 16 16 12 13 10 10 8 8 9 10 8 7 6 7 7 6 7 6 6 6 7 8 8
12 13 20 12 11 20 20 18 11 9 14 9 8 7 15 17 19 22 19 19 17 15 14 13 12 9 9 11 9 9 11 10 9 6 7 7 6 6 6 6 7 6 7 7
10 16 1 5 10 22 12 13 15 10 13 14 11 7 6 20 17 18 21 18 17 17 16 14 16 11 12 12 10 9 9 10 11 7 7 7 7 7 4 7 5 4 5 6
0 9 21 8 7 7 7 12 11 12 10 9 10 7 6 11 16 11 17 17 16 16 15 16 16 14 14 13 12 10 8 11 12 9 9 8 8 7 4 4 5 6 6 6
5 6 2 7 5 6 8 12 9 13 10 9 8 8 8 7 10 15 16 18 18 19 18 17 16 15 15 11 13 11 9 12 11 10 11 9 9 5 6 5 5 5 7 6
2 6 6 4 8 4 9 3 9 8 10 10 9 9 6 7 11 13 14 16 21 17 16 15 17 16 15 12 11 10 9 12 12 10 11 8 11 7 7 7 6 5 5 5
5 2 3 10 10 9 8 9 8 8 7 13 10 9 9 8 9 13 14 18 18 18 16 14 17 17 16 13 13 12 8 10 13 11 10 11 11 8 6 7 5 5 5 5
9 12 21 16 25 28 25 4 6 7 9 11 11 10 9 8 9 12 12 17 17 17 17 15 14 16 16 13 13 13 9 10 12 12 9 11 9 9 8 6 5 5 5 5
7 14 19 18 23 25 23 23 17 6 8 13 12 10 10 9 9 11 13 14 18 18 17 18 15 14 13 15 13 12 9 11 13 11 11 10 10 10 8 6 8 6 5 6
4 10 3 15 22 25 24 18 17 19 9 7 11 11 10 9 11 9 10 12 16 17 17 16 16 14 15 15 13 12 9 11 11 10 8 10 8 5 7 1 14 13 12 8
10 15 8 14 16 22 21 17 19 15 16 18 3 9 11 11 8 10 9 15 16 20 18 16 16 15 16 16 13 12 11 12 11 11 9 10 9 9 8 3 8 3 9 13
7 8 9 12 16 21 23 14 16 17 12 17 11 7 9 10 9 10 10 14 14 18 18 18 17 17 17 18 14 14 10 14 12 11 11 9 10 9 9 8 6 5 2 2
6 4 5 12 17 18 19 21 16 18 21 19 15 13 5 11 9 9 8 10 14 13 15 18 19 18 17 19 17 16 13 10 11 10 11 11 9 10 7 9 9 7 3 3
9 6 5 9 15 13 19 17 16 13 18 13 10 17 21 6 8 8 8 7 8 8 12 13 16 19 19 19 19 12 14 16 13 11 8 11 9 10 10 6 9 9 8 7
6 7 6 9 11 9 14 14 17 5 14 17 4 6 23 6 5 6 7 5 8 7 7 8 5 13 19 18 18 13 11 10 13 9 11 10 11 10 10 10 7 9 9 8
4 6 13 13 9 10 10 15 14 8 2 18 9 9 7 11 12 4 4 6 8 9 8 7 7 7 12 17 16 13 11 12 12 12 8 10 9 9 9 11 11 9 9 10
10 10 10 6 12 6 4 14 17 12 8 12 15 14 10 11 11 6 7 7 7 9 5 8 11 9 7 5 13 11 9 12 12 11 10 9 6 7 6 8 10 13 12 10
10 10 10 16 11 12 5 11 17 15 13 14 14 8 5 9 5 5 6 7 8 6 8 7 8 7 5 5 8 5 7 11 12 12 10 8 11 10 8 8 7 6 8 12
12 11 14 6 12 13 11 10 11 15 15 15 14 10 6 8 8 7 6 6 4 7 9 9 7 4 3 3 4 4 4 5 8 11 11 11 9 10 11 10 5 6 5 6
10 9 8 10 10 6 7 10 12 14 14 10 12 13 7 6 6 3 10 6 3 7 6 5 5 3 3 3 2 3 3 5 4 6 6 9 8 6 5 6 7 7 6 7
9 8 8 7 10 11 7 7 9 15 12 10 6 3 5 7 5 7 10 11 13 16 3 6 5 5 6 1 3 4 6 7 5 5 5 5 6 6 8 8 8 10 10 10
10 6 7 9 12 10 10 6 4 5 6 5 5 6 7 8 7 6 8 16 17 12 11 4 5 7 7 2 1 6 6 8 7 8 8 8 5 6 6 9 10 10 11 12
14 5 5 7 6 6 6 7 5 5 5 5 5 6 5 3 6 3 9 8 14 12 5 8 8 8 5 6 5 7 7 6 6 6 6 6 7 7 6 7 9 10 11 11
13 8 12 14 8 6 4 7 2 4 3 5 4 5 5 4 5 5 5 6 7 10 7 3 5 5 1 4 5 7 7 6 7 7 7 7 8 7 7 8 9 9 10 11
8 6 7 7 9 9 8 7 6 5 4 6 3 3 4 7 4 4 4 5 5 3 8 6 6 5 4 3 6 6 6 6 8 7 7 8 8 7 7 6 7 8 9 10
Wind_Direction
223 248 254 190 186 181 202 186 184 193 197 185 171 168 163 161 152 155 154 159 163 161 163 158 164 158 167 176 157 142 136 134 141 156 162 142 132 126 133 121 108 91 77 83
228 227 238 225 187 190 206 190 191 169 216 183 207 183 142 160 162 163 167 169 167 164 164 162 168 163 164 166 157 135 140 145 143 149 149 131 133 156 145 131 108 95 84 92
217 226 243 237 203 194 202 196 179 197 176 239 164 193 156 164 165 169 174 170 167 169 169 165 167 159 162 156 148 134 144 150 147 161 136 140 131 135 135 134 109 101 97 98
199 196 237 230 212 193 200 197 205 170 180 205 207 212 163 166 165 174 180 172 171 166 165 161 161 155 151 146 148 142 150 154 155 159 148 144 131 116 97 115 121 119 105 105
181 199 200 252 179 192 186 209 193 182 186 192 214 155 185 169 176 172 177 172 172 167 163 155 161 157 148 151 149 152 153 158 163 159 157 149 141 140 123 116 122 120 122 111
234 163 210 203 232 172 137 198 185 163 182 164 172 192 231 186 176 168 168 165 160 160 157 157 163 153 152 158 156 165 163 168 165 157 161 154 151 151 142 132 129 136 135 139
217 128 216 166 219 179 163 219 185 170 172 165 168 173 209 181 162 163 163 157 155 155 161 166 161 155 160 156 170 171 166 163 167 154 163 157 151 144 144 148 146 139 144 156
150 94 147 136 294 249 202 196 156 153 162 162 158 171 178 139 155 156 148 147 154 157 160 163 161 161 163 164 169 168 166 158 166 157 167 155 152 149 155 150 169 162 153 150
357 228 345 40 328 318 187 150 146 146 173 158 155 163 165 167 154 163 145 153 157 159 158 165 167 166 167 173 164 172 168 157 161 161 153 153 155 156 155 159 163 173 159 155
328 347 2 21 358 353 344 103 145 148 168 159 160 163 167 161 143 152 142 152 158 152 158 167 172 173 169 165 165 171 171 157 158 159 149 159 163 165 166 168 169 175 166 174
283 360 355 360 347 341 344 8 353 177 167 163 155 170 161 166 155 148 149 146 158 161 165 173 169 170 166 169 166 173 161 159 163 162 157 163 169 172 172 187 174 177 186 175
335 338 322 316 328 330 349 354 353 3 357 161 159 170 166 165 166 150 143 150 157 162 163 169 170 165 170 175 172 167 161 160 167 163 161 166 161 154 36 213 189 190 196 177
325 332 329 320 328 335 328 332 351 354 10 343 185 166 150 154 149 148 143 156 148 163 166 165 171 175 176 179 171 170 171 165 165 164 163 167 168 170 183 23 64 60 200 198
240 306 329 339 327 316 321 325 8 346 350 3 321 322 134 143 140 138 144 153 150 153 165 169 173 181 178 180 176 176 164 165 167 170 173 170 177 178 180 181 184 202 173 269
224 196 261 294 314 307 322 331 7 3 349 352 328 17 337 139 140 147 141 151 164 168 166 169 177 186 181 180 183 179 174 171 171 168 175 176 173 182 173 183 189 184 135 80
185 197 249 282 293 326 318 319 324 6 1 248 5 6 347 305 87 123 121 109 119 162 181 185 177 185 179 179 184 177 184 176 175 174 160 180 177 181 189 178 185 183 186 190
198 158 224 255 284 290 292 290 306 12 314 314 33 61 266 320 133 105 111 120 109 90 99 105 96 182 178 176 178 183 183 174 176 168 183 178 187 189 187 192 183 192 188 172
257 215 179 222 262 263 282 287 315 272 179 312 304 225 301 351 335 171 147 133 114 94 95 85 71 53 186 176 177 180 174 178 180 186 167 187 190 183 191 192 196 181 186 184
253 262 213 215 247 197 199 278 291 304 341 281 250 208 159 247 245 196 157 147 141 125 170 123 99 78 66 125 177 177 160 172 183 188 187 185 180 198 194 208 199 198 193 167
318 274 251 208 190 253 219 258 279 289 293 295 306 333 207 196 251 221 152 169 179 169 151 141 115 105 98 86 102 145 156 166 180 189 187 182 195 215 213 207 206 205 185 177
332 338 332 231 197 205 223 243 263 279 283 288 297 299 313 294 271 216 141 129 167 105 107 105 94 86 120 134 97 105 112 128 163 181 190 196 187 191 207 216 178 169 166 152
317 315 326 329 319 310 243 205 245 252 248 259 293 304 294 337 341 256 55 34 121 146 108 109 102 71 122 184 180 149 188 152 173 145 199 189 184 154 162 150 152 141 138 143
329 308 298 300 281 280 298 309 293 288 282 269 242 169 86 70 44 70 62 19 49 354 24 82 60 44 17 316 150 96 96 79 71 107 124 126 132 137 143 148 140 135 131 131
327 324 302 284 249 239 238 224 214 336 332 39 91 100 121 114 76 87 105 75 52 37 331 21 62 30 6 308 124 93 85 91 84 76 72 59 60 123 128 132 130 134 133 128
343 359 17 47 40 2 166 101 128 177 84 89 94 76 85 96 111 144 97 86 95 102 283 343 4 5 355 61 79 85 80 85 87 84 90 89 82 84 88 108 124 128 123 126
351 5 19 23 34 43 35 98 171 86 78 72 36 89 100 69 113 125 138 144 147 154 146 80 27 356 271 110 92 87 99 100 94 96 105 91 87 84 90 100 110 118 125 130
349 16 31 17 21 10 41 15 42 44 72 80 96 55 36 96 77 84 112 127 108 18 79 58 44 47 67 71 89 90 87 90 102 106 102 105 104 108 108 106 113 120 128 134